Weather Roundup
Issued by NWS

Home | Current Version | Previous Version | Graphics & Text | Print | Product List | Glossary Off
Versions: 1 2 3 4 5 6 7 8 9 10 11 12 13 14 15 16 17 18 19 20 21 22 23 24 25 26 27 28 29 30 31 32 33 34 35 36 37 38 39 40 41 42 43 44 45 46 47 48 49 50

168
NZUS93 KARX 102259
HRRWXR

CURRENT HOURLY OBSERVATIONS ACROSS
MUCH OF THE UPPER MISSISSIPPI VALLEY
NATIONAL WEATHER SERVICE LA CROSSE WI
500 PM CST WED FEB 10 2016


...SOUTHEAST MINNESOTA...


CITY           SKY/WX    TMP DP  RH WIND       PRES   REMARKS
ROCHESTER      CLOUDY     8  -1  66 NW8       30.08R WCI  -4
ROCHESTER/MAYO CLOUDY    10  -1  58 N7        30.10R WCI   0
WINONA         CLEAR     12   0  57 NW7       30.14S WCI   2
AUSTIN         CLEAR      9   0  66 N7        30.09R WCI  -3
ALBERT LEA     PTCLDY    12   0  57 NE7       30.09R WCI   2
DODGE CENTER   CLEAR     10  -2  56 NE8       30.08R WCI  -1
PRESTON        CLOUDY     7  -3  63 N8        30.08R WCI  -6
OWATONNA       CLEAR     10  -2  56 NE6       30.11R WCI   1
FARIBAULT        N/A     10   0  61 N7        30.12R WCI   0
$$

...ELSEWHERE IN MINNESOTA...


CITY           SKY/WX    TMP DP  RH WIND       PRES   REMARKS
MINNEAPOLIS    CLOUDY    12  -3  51 NE6       30.14R WCI   3
INTNL FALLS    CLEAR     -1 -12  59 CALM      30.18S
DULUTH         CLEAR      9 -10  42 N7        30.09R WCI  -2
RED WING       PTCLDY     9  -6  52 N3        30.15R
REDWOOD FALLS  CLOUDY    14   3  61 NE6       30.13R WCI   5
MANKATO        CLOUDY    12   0  57 N7        30.12R WCI   2
WORTHINGTON    CLOUDY    10   5  79 NE10      30.07R WCI  -3
FAIRMONT       CLOUDY    12   3  67 NE10      30.08R WCI  -1
$$

...SOUTHWEST WISCONSIN...


CITY           SKY/WX    TMP DP  RH WIND       PRES   REMARKS
LA CROSSE      CLEAR     10  -3  55 NW10      30.13R WCI  -4
PRAIRIE DU CHI CLEAR     15  -3  46 N7        30.10R WCI   5
BOSCOBEL       CLEAR     14  -3  47 N8        30.11R WCI   3
LONE ROCK      NOT AVBL
PLATTEVILLE    CLEAR     13   2  61 CALM      30.05R
FORT MC COY    CLEAR     14  -1  52 NW7       30.10R WCI   4
VIROQUA        FAIR       9  -3  57 CALM      30.06R
WIS DELLS      CLEAR     14  -3  46 N6        30.06R WCI   5
$$

...ELSEWHERE IN WISCONSIN...


CITY           SKY/WX    TMP DP  RH WIND       PRES   REMARKS
MILWAUKEE      MOCLDY    13  -3  49 NW10      30.07R WCI   0
MADISON        PTCLDY    13  -2  51 NW5       30.07R WCI   5
GREEN BAY      CLEAR     11  -6  46 NW7       30.06R WCI   0
EAU CLAIRE     NOT AVBL
BLACK RVR FLS  FAIR      13  -4  46 N6        30.10R WCI   4
MEDFORD        CLEAR      9  -4  57 N6        30.03R WCI  -1
WAUSAU         CLEAR     12  -4  48 NW10      30.03R WCI  -1
WIS RAPIDS     CLEAR     10  -5  50 NW8       30.08R WCI  -2
MARSHFIELD     CLEAR      9  -4  55 NW9       30.04R WCI  -4
RICE LAKE      CLEAR     10  -3  55 NW5       30.12R WCI   2
$$

...NORTHEAST IOWA...


CITY           SKY/WX    TMP DP  RH WIND       PRES   REMARKS
WATERLOO       PTCLDY    13  -1  54 NE5       30.10R WCI   5
DUBUQUE        CLOUDY    13   0  56 NW8       30.06R WCI   2
DECORAH        CLOUDY    10  -2  56 NW8       30.06R WCI  -1
MASON CITY     PTCLDY    10   1  67 NE7       30.10R WCI  -1
CHARLES CITY   CLOUDY    10  -2  56 N8        30.08S WCI  -1
OELWEIN        CLOUDY    12   0  57 N8        30.09R WCI   1
$$

...ELSEWHERE IN IOWA...


CITY           SKY/WX    TMP DP  RH WIND       PRES   REMARKS
DES MOINES     FLURRIES  19  12  74 E10       30.07R WCI   7
IOWA CITY      CLOUDY    18   2  49 CALM      30.12R
FORT DODGE     CLOUDY    12   5  73 E10       30.08R WCI  -1
MARSHALLTOWN   CLOUDY    13   7  77 E3        30.08R
CEDAR RAPIDS   CLOUDY    16   4  59 NW7       30.08R WCI   6
$$

...NORTHERN ILLINOIS...


CITY           SKY/WX    TMP DP  RH WIND       PRES   REMARKS
CHICAGO-OHARE  MOCLDY    16   2  54 NW12      30.05R WCI   3
CHICAGO-MIDWAY MOCLDY    17   1  49 NW10      30.06R WCI   5
MOLINE         CLOUDY    19   2  47 NW8       30.10R WCI   9
ROCKFORD       MOCLDY    15   0  51 NW7       30.09R WCI   5
PEORIA         MOCLDY    19   3  49 W8        30.11R WCI   9
$$

NOTE: "FAIR" INDICATES FEW OR NO CLOUDS BELOW 12,000 FEET WITH NO
SIGNIFICANT WEATHER AND/OR OBSTRUCTIONS TO VISIBILITY. WIND
SPEEDS ARE IN MILES-PER-HOUR.




USA.gov is the U.S. government's official web portal to all federal, state and local government web resources and services.